Location: Newark
(34.0667°N, 125.0833°E)
Time: 02:47:39
(UTC+00:00)

N. Korean satellite - Visible Passes

Search period start: 08 December 2019 00:00
Search period end: 18 December 2019 00:00
Orbit: 456 x 506 km, 97.2° (Epoch: 06 December)

Date Brightness Start Highest point End Pass type
(mag) Time Alt. Az. Time Alt. Az. Time Alt. Az.
08 Dec 6.5 21:39:09 10° N 21:42:38 61° WNW 21:46:02 10° SSW visible
09 Dec 9.9 09:45:07 10° SW 09:47:24 16° W 09:49:42 10° NW visible
09 Dec 7.3 21:13:46 10° NNE 21:17:13 52° E 21:20:35 10° S visible
10 Dec 8.6 09:18:29 10° SSW 09:21:52 33° W 09:25:15 10° NNW visible
10 Dec 9.1 20:48:55 10° NE 20:51:42 22° E 20:54:27 10° SSE visible
11 Dec 6.8 08:52:43 10° S 08:56:25 80° WSW 09:00:08 10° NNW visible
11 Dec 7.2 21:56:26 10° N 21:59:37 33° WNW 22:02:44 10° SW visible
12 Dec 6.3 21:30:45 10° N 21:34:15 82° WNW 21:37:41 10° SSW visible
13 Dec 9.6 09:36:14 10° SW 09:39:00 20° W 09:41:45 10° NW visible
13 Dec 8.0 21:05:31 10° NNE 21:08:48 38° E 21:12:01 10° SSE visible
14 Dec 8.0 09:09:58 10° S 09:13:29 43° W 09:17:01 10° NNW visible
14 Dec 9.5 20:40:55 10° NE 20:43:15 17° E 20:45:35 10° SE visible
15 Dec 6.8 21:47:55 10° N 21:51:14 43° WNW 21:54:30 10° SSW visible
16 Dec 10.1 09:54:48 10° WSW 09:56:09 12° W 09:57:30 10° WNW visible
16 Dec 6.6 21:22:23 10° NNE 21:25:50 74° ESE 21:29:14 10° S visible
17 Dec 9.2 09:27:30 10° SSW 09:30:35 25° W 09:33:40 10° NW visible
17 Dec 8.5 20:57:17 10° NE 21:00:21 29° E 21:03:22 10° SSE visible
